Location: LDNL
(36.4545°S, 141.6685°E)
Time: 16:16:12
(UTC+10:00)

Courier 1B - Pass Details

Date: 11 August 2022
Orbit: 962 x 1209 km, 28.3° (Epoch: 25 September)

Event Time Altitude Azimuth Distance (km) Brightness Sun altitude
Exits shadow 06:10:27 11° 298° (WNW) 3,008 9.6 -14.6°
Maximum altitude 06:14:30 17° 331° (NNW) 2,577 9.5 -13.8°
Drops below altitude 10° 06:18:56 10° 8° (N) 3,001 10.3 -13.0°
Sets 06:22:48 0° 28° (NNE) 3,904 11.2 -12.2°
